DateTimeUTC,F1_A11,F1_S11,BsB_S11,BsG_S11,BsR_S11,BbsB_S11,BbsG_S11,BbsR_S11,BaB_A11,BaG_A11,BaR_A11,Tu_S11,T_S11,Uu_S11,U_S11,P_S11,T1_A11
2021-09-06T00:00:00Z,00000200,20000000,,,,,,,0000.02,0000.46,-000.14,18.6,25.4,02.3,01.5,0662.6,31.1
2021-09-06T00:01:00Z,00000200,20000000,,,,,,,0000.00,0000.01,-000.03,18.7,25.5,02.2,01.5,0662.6,31.1
2021-09-06T00:02:00Z,00000200,20000000,,,,,,,-000.33,-000.30,-000.45,18.7,25.5,02.0,01.3,0662.6,31.1
2021-09-06T00:03:00Z,00000200,60000000,,,,,,,0000.70,0000.41,0000.46,18.7,25.5,02.0,01.3,0662.6,31.1
2021-09-06T00:04:00Z,00000200,40000000,0002.54,0001.89,0001.55,0000.14,0000.34,-000.07,0000.42,0000.46,0000.53,18.8,25.3,02.3,01.6,0663.6,31.0
2021-09-06T00:05:00Z,00000200,00000000,0002.21,0001.78,0001.36,-000.49,0000.38,0000.21,0000.49,0000.33,0000.30,18.9,25.3,02.3,01.6,0663.6,31.0
2021-09-06T00:06:00Z,00000200,00000000,0002.12,0001.98,0001.24,-000.03,0000.47,0000.05,0000.29,0000.34,0000.54,18.8,25.3,02.2,01.5,0663.6,31.0
2021-09-06T00:07:00Z,00000200,00000000,0002.64,0001.97,0001.11,0000.26,0000.50,0000.32,0000.64,0000.72,0000.07,18.8,25.2,02.4,01.6,0663.6,31.0
2021-09-06T00:08:00Z,00000200,00000000,0002.06,0001.98,0001.44,0000.07,0000.01,0000.17,0000.61,0000.46,0000.54,18.8,25.2,02.2,01.5,0663.6,31.0
2021-09-06T00:09:00Z,00000200,00000000,0002.16,0002.03,0001.21,0000.06,0000.25,0000.48,0000.36,0000.64,0000.20,18.7,25.2,02.2,01.5,0663.5,31.0
2021-09-06T00:10:00Z,00000200,00000000,0001.97,0002.13,0001.57,0000.05,0000.13,0000.41,0000.84,0000.59,0000.62,18.7,25.2,02.3,01.5,0663.5,31.0
2021-09-06T00:11:00Z,00000200,00000000,0001.94,0001.88,0001.24,0000.76,0000.14,0000.15,0000.62,0000.46,0000.71,18.7,25.1,02.5,01.7,0663.5,31.0
2021-09-06T00:12:00Z,00000200,00000000,0002.68,0001.60,0001.70,0000.28,0000.23,0000.35,0000.90,0000.74,0000.50,18.7,25.1,02.5,01.7,0663.5,31.0
2021-09-06T00:13:00Z,00000200,00000000,0002.69,0002.09,0001.39,-000.00,0000.03,0000.45,0000.49,0000.51,0000.31,18.8,25.1,02.3,01.6,0663.6,31.0
2021-09-06T00:14:00Z,00000200,00000000,0002.29,0002.12,0001.61,0000.42,0000.59,0000.48,0000.72,0000.66,0000.34,18.9,25.2,02.3,01.6,0663.6,31.1
2021-09-06T00:15:00Z,00000200,00000000,0002.19,0001.84,0001.39,0000.73,0000.31,0000.19,0000.26,0000.83,0000.58,19.0,25.3,02.3,01.6,0663.6,31.1
2021-09-06T00:16:00Z,00000200,00000000,0002.59,0002.21,0001.38,0000.05,0000.01,0000.41,0001.16,0000.51,0000.66,19.1,25.3,02.4,01.7,0663.6,31.1
2021-09-06T00:17:00Z,00000200,00000000,0001.98,0001.93,0001.44,-000.26,0000.04,0000.29,0000.34,0000.28,0000.28,19.1,25.3,02.5,01.7,0663.6,31.1
2021-09-06T00:18:00Z,00000200,00000000,0001.87,0001.95,0001.35,0000.32,-000.13,0000.12,0000.71,0000.72,0000.54,19.1,25.3,02.5,01.7,0663.6,31.1
2021-09-06T00:19:00Z,00000200,00000000,0003.25,0001.87,0001.56,-000.02,0000.13,0000.32,0000.51,0000.49,0000.34,19.0,25.3,02.6,01.7,0663.6,31.1
2021-09-06T00:20:00Z,00000200,00000000,0002.26,0001.95,0001.63,0000.83,0000.17,0000.46,0000.58,0000.28,0000.27,19.0,25.3,02.6,01.8,0663.6,31.1
2021-09-06T00:21:00Z,00000200,00000000,0001.94,0002.19,0001.18,0000.39,0000.02,0000.23,0000.57,0000.89,0000.47,19.0,25.3,02.7,01.8,0663.6,31.0
2021-09-06T00:22:00Z,00000200,00000000,0002.85,0001.98,0001.47,0000.22,0000.20,0000.17,0000.49,0000.20,0000.22,18.9,25.2,02.6,01.8,0663.6,31.0
2021-09-06T00:23:00Z,00000200,00000000,0002.46,0002.04,0001.63,0000.45,0000.34,0000.68,0000.19,0000.56,0000.62,18.9,25.2,02.5,01.7,0663.6,31.0
2021-09-06T00:24:00Z,00000200,00000000,0002.57,0002.26,0000.97,-000.01,0000.04,0000.52,0000.14,0000.07,0000.04,18.9,25.2,02.4,01.7,0663.6,31.0
2021-09-06T00:25:00Z,00000200,00000000,0002.63,0001.98,0001.22,0000.28,0000.12,0000.46,0001.05,0000.46,0000.04,18.8,25.2,02.3,01.6,0663.6,31.0
2021-09-06T00:26:00Z,00000200,00000000,0002.15,0001.83,0001.35,0000.11,0000.35,0000.52,0000.12,0000.24,0000.71,18.8,25.2,02.3,01.6,0663.6,31.0
2021-09-06T00:27:00Z,00000200,01000000,0002.57,0001.99,0001.61,0000.86,0000.26,0000.45,0000.84,0001.02,0000.60,18.8,25.2,02.3,01.5,0663.6,31.0
2021-09-06T00:28:00Z,00000200,00000000,0002.16,0001.76,0001.50,0000.03,0000.39,0000.06,0000.40,0000.47,0000.52,18.9,25.2,02.3,01.6,0663.6,31.1
2021-09-06T00:29:00Z,00000200,00000000,0002.55,0002.14,0001.37,0000.58,0000.33,0000.35,0000.97,0000.62,0000.39,19.0,25.2,02.3,01.6,0663.6,31.1
2021-09-06T00:30:00Z,00000200,00000000,0002.23,0002.06,0001.62,0000.72,0000.13,0000.48,0000.63,0000.47,0000.59,19.1,25.3,02.4,01.6,0663.6,31.1
2021-09-06T00:31:00Z,00000200,00000000,0002.56,0002.02,0001.22,-000.25,0000.06,0000.19,0000.47,0000.93,0000.48,19.1,25.3,02.4,01.6,0663.7,31.1
2021-09-06T00:32:00Z,00000200,00000000,0001.88,0002.18,0001.33,0000.60,0000.09,0000.58,0000.56,0000.30,0000.46,19.1,25.3,02.5,01.7,0663.6,31.1
2021-09-06T00:33:00Z,00000200,00000000,0002.59,0002.07,0001.50,0000.12,0000.16,0000.06,0000.40,0000.32,0000.09,19.1,25.3,02.3,01.6,0663.7,31.1
2021-09-06T00:34:00Z,00000200,00000000,0002.72,0002.15,0001.08,0000.33,0000.02,0000.66,0000.57,0000.33,0000.31,19.0,25.3,02.4,01.6,0663.7,31.1
2021-09-06T00:35:00Z,00000200,00000000,0002.25,0001.99,0001.42,0000.21,0000.10,0000.28,0000.06,0000.57,0000.27,19.0,25.3,02.3,01.6,0663.7,31.0
2021-09-06T00:36:00Z,00000200,00000000,0001.70,0002.05,0001.60,0000.39,0000.40,0000.16,0001.01,0000.57,0000.51,19.0,25.3,02.3,01.6,0663.7,31.0
2021-09-06T00:37:00Z,00000200,00000000,0002.70,0002.16,0001.30,0000.43,0000.01,0000.28,0000.75,0000.55,0000.53,18.9,25.2,02.2,01.5,0663.7,31.0
2021-09-06T00:38:00Z,00000200,00000000,0001.82,0001.87,0001.36,0000.76,0000.36,0000.18,0000.59,0000.43,0000.26,18.9,25.2,02.4,01.6,0663.7,31.0
2021-09-06T00:39:00Z,00000200,00000000,0002.66,0001.88,0001.06,0000.53,0000.17,0000.29,0000.37,0000.52,0000.39,18.9,25.2,02.4,01.6,0663.7,31.0
2021-09-06T00:40:00Z,00000200,00000000,0001.65,0002.04,0001.28,-000.08,-000.22,0000.21,0000.33,0000.65,0000.29,18.8,25.2,02.4,01.6,0663.7,31.0
2021-09-06T00:41:00Z,00000200,00000000,0002.63,0002.13,0001.66,0000.48,0000.03,0000.37,0000.88,0000.19,0000.60,18.8,25.2,02.4,01.6,0663.8,31.0
2021-09-06T00:42:00Z,00000200,00000000,0002.60,0002.16,0001.33,0000.13,0000.16,0000.33,0000.45,0000.85,0000.59,18.8,25.2,02.3,01.6,0663.7,31.0
2021-09-06T00:43:00Z,00000200,00000000,0002.72,0002.13,0001.36,0000.09,-000.08,0000.18,0000.86,0000.82,0000.49,18.9,25.2,02.4,01.6,0663.8,31.0
2021-09-06T00:44:00Z,00000200,00000000,0002.60,0001.65,0001.24,0000.28,0000.17,0000.31,0000.47,-000.03,0000.68,19.0,25.2,02.4,01.7,0663.8,31.1
2021-09-06T00:45:00Z,00000200,00000000,0001.96,0001.98,0001.37,0000.76,0000.21,0000.09,0000.47,0000.75,0000.22,19.1,25.3,02.3,01.6,0663.8,31.1
2021-09-06T00:46:00Z,00000200,00000000,0002.06,0001.88,0001.52,0000.49,0000.32,0000.49,0000.40,0000.52,0000.03,19.2,25.3,02.2,01.5,0663.8,31.1
2021-09-06T00:47:00Z,00000200,01000000,0003.11,0002.10,0001.42,0000.38,0000.14,0000.39,0000.38,0000.52,0000.25,19.2,25.3,02.2,01.5,0663.8,31.1
2021-09-06T00:48:00Z,00000200,00000000,0002.08,0001.82,0001.32,0001.07,0000.03,0000.41,0000.39,0000.25,0000.11,19.1,25.3,02.0,01.4,0663.8,31.1
2021-09-06T00:49:00Z,00000200,00000000,0002.33,0002.15,0001.57,0000.26,0000.33,0000.41,0000.46,0000.25,0000.41,19.1,25.3,02.0,01.4,0663.8,31.1
2021-09-06T00:50:00Z,00000200,00000000,0002.34,0001.93,0001.56,0000.14,0000.16,0000.11,0000.26,0000.42,0000.44,19.0,25.3,02.1,01.4,0663.8,31.0
2021-09-06T00:51:00Z,00000200,00000000,0001.51,0002.08,0001.25,0001.00,0000.10,0000.53,0000.73,0000.74,0000.64,19.0,25.3,02.2,01.5,0663.8,31.1
2021-09-06T00:52:00Z,00000200,00000000,0002.64,0001.79,0001.36,0001.28,0000.41,0000.42,0001.02,0000.74,0000.58,19.0,25.2,02.2,01.5,0663.8,31.0
2021-09-06T00:53:00Z,00000200,00000000,0002.27,0001.89,0001.81,0000.53,0000.13,0000.21,0000.43,0000.46,0000.21,18.9,25.2,02.2,01.5,0663.8,31.0
2021-09-06T00:54:00Z,00000200,00000000,0002.01,0002.32,0001.73,0000.35,0000.37,0000.37,0000.40,0000.29,0000.76,18.9,25.2,02.2,01.5,0663.8,31.0
2021-09-06T00:55:00Z,00000200,00000000,0002.86,0002.25,0001.18,0000.00,0000.03,0000.41,0000.49,0000.53,0000.15,18.9,25.2,02.1,01.4,0663.8,31.0
2021-09-06T00:56:00Z,00000200,00000000,0002.25,0002.08,0001.30,0000.25,0000.26,0000.29,0000.91,0000.52,0000.26,18.8,25.1,02.2,01.5,0663.8,31.0
2021-09-06T00:57:00Z,00000200,40000000,,,,,,,0000.38,0000.53,0000.55,18.9,25.2,02.8,01.9,0663.8,31.0
2021-09-06T00:58:00Z,00000200,60000000,,,,,,,-000.35,0000.00,0000.14,18.6,25.3,02.0,01.3,0662.9,31.0
2021-09-06T00:59:00Z,00000200,20000000,,,,,,,-000.27,-000.34,-000.01,18.6,25.4,02.0,01.3,0662.8,31.1
